Погода в Гёйчае

Азербайджан     40°38′59″N   47°44′31″E
темп.,
°C
ветер,
м/с
пор.,
м/с
влажн.,
%
обл.,
%
осадки,
мм/ч
давл.,
гПа
погр.,
м
16 мая, вс
вс1601:00+17св22444 0.0 101517
04:00+16св33454 0.0 101519
07:00+19всв22400 0.0 101543
10:00+25ююв34220 0.0 1015793
13:00+29юв45160 0.0 10131873
16:00+30юв44180 0.0 10112370
19:00+26в33320 0.0 101149
22:00+20в33355 0.0 101235
17 мая, пн
пн1701:00+17св22384 0.0 101215
04:00+17ссв223729 0.0 101114
07:00+19ссв22375 0.0 101152
10:00+25ююз212711 0.0 1011806
13:00+29юз232377 0.0 10091408
16:00+31ю32220 0.0 10071479
19:00+27юв23307 0.0 100747
22:00+21в3346100 0.1 100942
18 мая, вт
вт1801:00+18св11585 0.1 100811
04:00+18ссв2260100 0.1 100716
07:00+20зюз1153100 0.0 100859
10:00+26ю2338100 0.0 1008910
13:00+29ююв4528100 0.0 10071733
16:00+31ююз432553 0.0 10072582
19:00+26ю363985 0.3 1008192
22:00+19св326198 0.6 101124
19 мая, ср
ср1901:00+18св1164100 0.0 101213
04:00+16св11660 0.0 101211
07:00+19всв01570 0.0 101478
10:00+24ю43440 0.0 10151019
13:00+28ююв33310 0.0 10142018
16:00+30ю44240 0.0 10122695
19:00+27ююв35310 0.0 1013121
22:00+20вюв36610 0.0 1016155
20 мая, чт
чт2001:00+18всв22673 0.0 101513
04:00+17св22661 0.0 101511
07:00+20ссв11540 0.0 101684
10:00+26ю11411 0.0 1015901
13:00+30ю32290 0.0 10131708
16:00+32ююв32250 0.0 10111992
19:00+29вюв33310 0.0 101290
22:00+21в35502 0.0 1014110